IRIDIUM 35 [P]

Last updated on Dec. 13, 2018, 12:08 a.m. UTC

1 24966U 97056B   18346.84007691  .03715343 -82991-6  11058-2 0  9990
2 24966  86.4077  91.1840 0379155 346.4903  12.6413 15.51761464110596

Satellite is not in orbit.